Location: Observatoire
(46.1952°N, 5.3391°E)
Time: 21:49:44
(UTC+01:00)

Tiros 1 despin weight - Pass Details

Date: 25 February 2026
Orbit: 556 x 593 km, 48.2° (Epoch: 3 March)

Event Time Altitude Azimuth Distance (km) Brightness Sun altitude
Rises 18:24:36 0° 287° (WNW) 2,737 ? -1.8°
Reaches altitude 10° 18:27:00 10° 278° (W) 1,838 ? -2.2°
Maximum altitude 18:30:47 33° 213° (SSW) 934 ? -2.8°
Drops below altitude 10° 18:34:34 10° 149° (SSE) 1,830 ? -3.5°
Sets 18:36:57 0° 140° (SE) 2,724 ? -3.9°
